Time,TemperatureF,DewpointF,PressureIn,WindDirection,WindDirectionDegrees,WindSpeedMPH,WindSpeedGustMPH,Humidity,HourlyPrecipIn,Conditions,Clouds,dailyrainin,SoftwareType,DateUTC
2013-01-14 00:02:00,42.0,41.0,30.12,NNE,17,6.0,11.0,96,0.03,,,0.04,,2013-01-14 06:02:00,
2013-01-14 00:12:00,42.0,41.0,30.12,NNE,17,6.0,11.0,96,0.03,,,0.04,,2013-01-14 06:12:00,
2013-01-14 00:22:00,42.0,41.0,30.12,NNE,24,8.0,15.0,96,0.00,,,1.05,,2013-01-14 06:22:00,
2013-01-14 00:32:00,42.0,41.0,30.12,NE,35,6.0,14.0,95,0.00,,,1.05,,2013-01-14 06:32:00,
2013-01-14 00:42:00,42.0,41.0,30.12,NE,35,6.0,14.0,95,0.00,,,1.05,,2013-01-14 06:42:00,
2013-01-14 00:53:00,41.0,40.0,30.13,NNE,28,7.0,17.0,96,0.00,,,1.05,,2013-01-14 06:53:00,
2013-01-14 01:02:00,41.0,40.0,30.13,ENE,72,11.0,11.0,95,0.00,,,1.05,,2013-01-14 07:02:00,
2013-01-14 01:12:00,41.0,40.0,30.13,ENE,72,11.0,11.0,95,0.00,,,1.05,,2013-01-14 07:12:00,
2013-01-14 01:22:00,41.0,40.0,30.14,NE,38,7.0,12.0,95,0.00,,,1.05,,2013-01-14 07:22:00,
2013-01-14 01:32:00,41.0,40.0,30.14,NNE,28,5.0,12.0,96,0.00,,,1.05,,2013-01-14 07:32:00,
2013-01-14 01:42:00,41.0,40.0,30.14,NNE,28,5.0,12.0,96,0.00,,,1.05,,2013-01-14 07:42:00,
2013-01-14 01:53:00,41.0,40.0,30.13,North,11,8.0,16.0,96,0.00,,,1.05,,2013-01-14 07:53:00,
2013-01-14 02:02:00,41.0,40.0,30.14,NE,42,9.0,15.0,95,0.00,,,1.05,,2013-01-14 08:02:00,
2013-01-14 02:12:00,41.0,40.0,30.14,NE,42,9.0,15.0,95,0.00,,,1.05,,2013-01-14 08:12:00,
2013-01-14 02:22:00,41.0,40.0,30.14,NNW,339,4.0,10.0,96,0.00,,,1.05,,2013-01-14 08:22:00,
2013-01-14 02:32:00,41.0,40.0,30.14,NE,35,7.0,11.0,95,0.00,,,1.05,,2013-01-14 08:32:00,
2013-01-14 02:42:00,41.0,40.0,30.14,NE,35,7.0,11.0,95,0.00,,,1.05,,2013-01-14 08:42:00,
2013-01-14 02:53:00,41.0,40.0,30.14,NNE,28,5.0,14.0,96,0.00,,,1.05,,2013-01-14 08:53:00,
2013-01-14 03:02:00,41.0,40.0,30.14,NE,37,11.0,18.0,96,0.00,,,1.05,,2013-01-14 09:02:00,
2013-01-14 03:12:00,41.0,40.0,30.14,NE,37,11.0,18.0,96,0.00,,,1.05,,2013-01-14 09:12:00,
2013-01-14 03:22:00,41.0,40.0,30.16,North,8,10.0,14.0,96,0.00,,,1.05,,2013-01-14 09:22:00,
2013-01-14 03:33:00,40.0,39.0,30.14,North,11,9.0,13.0,96,0.00,,,1.05,,2013-01-14 09:33:00,
2013-01-14 03:42:00,40.0,39.0,30.14,North,11,9.0,13.0,96,0.00,,,1.05,,2013-01-14 09:42:00,
2013-01-14 03:53:00,40.0,39.0,30.14,North,8,10.0,14.0,96,0.00,,,1.05,,2013-01-14 09:53:00,
2013-01-14 04:02:00,40.0,39.0,30.14,NNE,27,7.0,20.0,96,0.00,,,1.05,,2013-01-14 10:02:00,
2013-01-14 04:12:00,40.0,39.0,30.14,NNE,27,7.0,20.0,96,0.00,,,1.05,,2013-01-14 10:12:00,
2013-01-14 04:22:00,40.0,39.0,30.14,NE,39,11.0,20.0,95,0.00,,,1.05,,2013-01-14 10:22:00,
2013-01-14 04:32:00,40.0,39.0,30.14,North,11,8.0,15.0,96,0.00,,,1.05,,2013-01-14 10:32:00,
2013-01-14 04:42:00,40.0,39.0,30.14,North,11,8.0,15.0,96,0.00,,,1.05,,2013-01-14 10:42:00,
2013-01-14 04:53:00,40.0,39.0,30.14,North,353,6.0,11.0,97,0.00,,,1.05,,2013-01-14 10:53:00,
2013-01-14 05:02:00,40.0,39.0,30.14,North,7,8.0,13.0,96,0.00,,,1.05,,2013-01-14 11:02:00,
2013-01-14 05:12:00,40.0,39.0,30.14,North,7,8.0,13.0,96,0.00,,,1.05,,2013-01-14 11:12:00,
2013-01-14 05:22:00,40.0,39.0,30.14,NNE,15,9.0,17.0,96,0.00,,,1.05,,2013-01-14 11:22:00,
2013-01-14 05:32:00,39.0,38.0,30.14,North,4,9.0,14.0,96,0.00,,,1.05,,2013-01-14 11:32:00,
2013-01-14 05:42:00,39.0,38.0,30.14,North,4,9.0,14.0,96,0.00,,,1.05,,2013-01-14 11:42:00,
2013-01-14 05:53:00,40.0,39.0,30.14,NE,48,8.0,12.0,96,0.00,,,1.05,,2013-01-14 11:53:00,
2013-01-14 06:03:00,40.0,39.0,30.16,NNE,17,10.0,11.0,97,0.00,,,1.05,,2013-01-14 12:03:00,
2013-01-14 06:12:00,40.0,39.0,30.16,NNE,17,10.0,11.0,97,0.00,,,1.05,,2013-01-14 12:12:00,
2013-01-14 06:23:00,40.0,39.0,30.14,North,8,6.0,14.0,97,0.00,,,1.05,,2013-01-14 12:23:00,
2013-01-14 06:33:00,39.0,38.0,30.16,NE,48,8.0,13.0,97,0.00,,,1.05,,2013-01-14 12:33:00,
2013-01-14 06:43:00,39.0,38.0,30.16,NE,48,8.0,13.0,97,0.00,,,1.05,,2013-01-14 12:43:00,
2013-01-14 06:53:00,39.0,38.0,30.18,NNE,18,6.0,11.0,97,0.00,,,1.05,,2013-01-14 12:53:00,
2013-01-14 07:03:00,39.0,38.0,30.17,North,357,11.0,15.0,98,0.00,,,1.05,,2013-01-14 13:03:00,
2013-01-14 07:12:00,39.0,38.0,30.17,North,357,11.0,15.0,98,0.00,,,1.05,,2013-01-14 13:12:00,
2013-01-14 07:22:00,39.0,38.0,30.18,NE,37,9.0,20.0,97,0.00,,,1.05,,2013-01-14 13:22:00,
2013-01-14 07:33:00,39.0,38.0,30.18,NNE,17,8.0,13.0,97,0.00,,,1.05,,2013-01-14 13:33:00,
2013-01-14 07:43:00,39.0,38.0,30.18,NNE,17,8.0,13.0,97,0.00,,,1.05,,2013-01-14 13:43:00,
2013-01-14 07:53:00,38.0,37.0,30.19,North,7,9.0,13.0,97,0.00,,,1.05,,2013-01-14 13:53:00,
2013-01-14 08:02:00,38.0,37.0,30.18,NNE,24,8.0,20.0,97,0.00,,,1.05,,2013-01-14 14:02:00,
2013-01-14 08:12:00,38.0,37.0,30.18,NNE,24,8.0,20.0,97,0.00,,,1.05,,2013-01-14 14:12:00,
2013-01-14 08:22:00,38.0,37.0,30.17,NE,38,9.0,14.0,98,0.00,,,1.05,,2013-01-14 14:22:00,
2013-01-14 08:33:00,37.0,36.0,30.20,NE,34,10.0,15.0,97,0.00,,,1.05,,2013-01-14 14:33:00,
2013-01-14 08:43:00,37.0,36.0,30.20,NE,34,10.0,15.0,97,0.00,,,1.05,,2013-01-14 14:43:00,
2013-01-14 08:53:00,37.0,36.0,30.19,NNE,32,10.0,16.0,97,0.00,,,1.05,,2013-01-14 14:53:00,
2013-01-14 09:03:00,37.0,36.0,30.22,NE,45,8.0,10.0,96,0.00,,,1.05,,2013-01-14 15:03:00,
2013-01-14 09:12:00,37.0,36.0,30.22,NE,45,8.0,10.0,96,0.00,,,1.05,,2013-01-14 15:12:00,
2013-01-14 09:23:00,36.0,35.0,30.19,NNE,18,10.0,12.0,98,0.00,,,1.05,,2013-01-14 15:23:00,
2013-01-14 09:33:00,36.0,35.0,30.19,NNE,23,7.0,11.0,98,0.00,,,1.05,,2013-01-14 15:33:00,
2013-01-14 09:43:00,36.0,35.0,30.19,NNE,23,7.0,11.0,98,0.00,,,1.05,,2013-01-14 15:43:00,
2013-01-14 09:53:00,36.0,35.0,30.19,North,4,7.0,14.0,98,0.00,,,1.05,,2013-01-14 15:53:00,
2013-01-14 10:03:00,36.0,35.0,30.17,NNE,27,10.0,14.0,98,0.00,,,1.05,,2013-01-14 16:03:00,
2013-01-14 10:12:00,36.0,35.0,30.17,NNE,27,10.0,14.0,98,0.00,,,1.05,,2013-01-14 16:12:00,
2013-01-14 10:23:00,36.0,36.0,30.18,NNE,21,6.0,14.0,99,0.02,,,1.05,,2013-01-14 16:23:00,
2013-01-14 10:33:00,36.0,36.0,30.21,NE,41,7.0,14.0,99,0.02,,,1.05,,2013-01-14 16:33:00,
2013-01-14 10:43:00,36.0,36.0,30.21,NE,41,7.0,14.0,99,0.02,,,1.05,,2013-01-14 16:43:00,
2013-01-14 10:53:00,36.0,36.0,30.18,ENE,73,6.0,13.0,99,0.02,,,1.05,,2013-01-14 16:53:00,
2013-01-14 11:03:00,36.0,36.0,30.16,NE,44,7.0,12.0,99,0.02,,,1.05,,2013-01-14 17:03:00,
2013-01-14 11:12:00,36.0,36.0,30.16,NE,44,7.0,12.0,99,0.02,,,1.05,,2013-01-14 17:12:00,
2013-01-14 11:23:00,36.0,36.0,30.16,NNE,31,6.0,12.0,99,0.02,,,1.05,,2013-01-14 17:23:00,
2013-01-14 11:33:00,36.0,36.0,30.16,NNE,15,6.0,13.0,99,0.02,,,1.05,,2013-01-14 17:33:00,
2013-01-14 11:43:00,36.0,36.0,30.16,NNE,15,6.0,13.0,99,0.02,,,1.05,,2013-01-14 17:43:00,
2013-01-14 11:53:00,36.0,36.0,30.14,NNE,28,4.0,9.0,99,0.02,,,1.05,,2013-01-14 17:53:00,
2013-01-14 12:03:00,36.0,36.0,30.12,NE,37,7.0,15.0,99,0.02,,,1.05,,2013-01-14 18:03:00,
2013-01-14 12:12:00,36.0,36.0,30.14,NE,45,6.0,12.0,99,0.03,,,1.05,,2013-01-14 18:12:00,
2013-01-14 12:23:00,36.0,36.0,30.14,NE,45,6.0,12.0,99,0.03,,,1.05,,2013-01-14 18:23:00,
2013-01-14 12:33:00,36.0,36.0,30.13,NNE,24,7.0,13.0,99,0.03,,,1.05,,2013-01-14 18:33:00,
2013-01-14 12:42:00,36.0,36.0,30.13,NNE,24,7.0,13.0,99,0.03,,,1.05,,2013-01-14 18:42:00,
2013-01-14 12:53:00,36.0,36.0,30.12,NNE,28,7.0,12.0,100,0.03,,,1.05,,2013-01-14 18:53:00,
2013-01-14 13:03:00,36.0,36.0,30.12,NNE,28,6.0,14.0,100,0.03,,,1.05,,2013-01-14 19:03:00,
2013-01-14 13:12:00,36.0,36.0,30.12,NNE,28,6.0,14.0,100,0.03,,,1.05,,2013-01-14 19:12:00,
2013-01-14 13:22:00,35.0,35.0,30.13,NNE,20,11.0,13.0,99,0.15,,,1.05,,2013-01-14 19:22:00,
2013-01-14 13:33:00,35.0,35.0,30.17,North,3,9.0,24.0,100,0.15,,,1.05,,2013-01-14 19:33:00,
2013-01-14 13:43:00,35.0,35.0,30.17,North,3,9.0,24.0,100,0.15,,,1.05,,2013-01-14 19:43:00,
2013-01-14 13:53:00,35.0,35.0,30.19,North,8,16.0,16.0,99,0.15,,,1.05,,2013-01-14 19:53:00,
2013-01-14 14:03:00,35.0,35.0,30.18,NNE,17,10.0,17.0,99,0.15,,,1.05,,2013-01-14 20:03:00,
2013-01-14 14:12:00,35.0,35.0,30.18,NNE,17,10.0,17.0,99,0.15,,,1.05,,2013-01-14 20:12:00,
2013-01-14 14:22:00,34.0,34.0,30.20,North,11,12.0,18.0,99,0.22,,,1.05,,2013-01-14 20:22:00,
2013-01-14 14:33:00,34.0,34.0,30.21,North,7,13.0,20.0,99,0.22,,,1.05,,2013-01-14 20:33:00,
2013-01-14 14:42:00,34.0,34.0,30.21,North,7,13.0,20.0,99,0.22,,,1.05,,2013-01-14 20:42:00,
2013-01-14 14:53:00,34.0,34.0,30.19,North,1,12.0,22.0,99,0.22,,,1.05,,2013-01-14 20:53:00,
2013-01-14 15:02:00,34.0,34.0,30.20,ENE,58,10.0,18.0,100,0.22,,,1.05,,2013-01-14 21:02:00,
2013-01-14 15:12:00,34.0,34.0,30.20,ENE,58,10.0,18.0,100,0.22,,,1.05,,2013-01-14 21:12:00,
2013-01-14 15:23:00,34.0,34.0,30.21,North,4,10.0,16.0,99,0.31,,,1.05,,2013-01-14 21:23:00,
2013-01-14 15:33:00,34.0,34.0,30.22,NE,38,10.0,13.0,99,0.31,,,1.05,,2013-01-14 21:33:00,
2013-01-14 15:42:00,34.0,34.0,30.22,NE,38,10.0,13.0,99,0.31,,,1.05,,2013-01-14 21:42:00,
2013-01-14 15:53:00,34.0,34.0,30.24,North,3,8.0,16.0,99,0.31,,,1.05,,2013-01-14 21:53:00,
2013-01-14 16:02:00,34.0,34.0,30.23,NNE,23,12.0,19.0,99,0.31,,,1.05,,2013-01-14 22:02:00,
2013-01-14 16:12:00,34.0,34.0,30.23,NNE,23,12.0,19.0,99,0.31,,,1.05,,2013-01-14 22:12:00,
2013-01-14 16:23:00,34.0,34.0,30.24,NNE,27,7.0,15.0,100,0.13,,,1.05,,2013-01-14 22:23:00,
2013-01-14 16:32:00,34.0,34.0,30.26,NE,34,9.0,13.0,99,0.13,,,1.05,,2013-01-14 22:32:00,
2013-01-14 16:43:00,34.0,34.0,30.26,NE,34,9.0,13.0,99,0.13,,,1.05,,2013-01-14 22:43:00,
2013-01-14 16:53:00,33.0,33.0,30.23,ENE,60,7.0,15.0,100,0.13,,,1.05,,2013-01-14 22:53:00,
2013-01-14 17:03:00,33.0,33.0,30.24,NNE,31,9.0,17.0,99,0.13,,,1.05,,2013-01-14 23:03:00,
2013-01-14 17:12:00,33.0,33.0,30.24,NNE,31,9.0,17.0,99,0.13,,,1.05,,2013-01-14 23:12:00,
2013-01-14 17:23:00,33.0,33.0,30.23,NE,39,11.0,13.0,99,0.16,,,1.05,,2013-01-14 23:23:00,
2013-01-14 17:33:00,34.0,34.0,30.23,NE,52,10.0,12.0,99,0.16,,,1.05,,2013-01-14 23:33:00,
2013-01-14 17:43:00,34.0,34.0,30.23,NE,52,10.0,12.0,99,0.16,,,1.05,,2013-01-14 23:43:00,
2013-01-14 17:53:00,34.0,34.0,30.23,NE,34,9.0,12.0,99,0.16,,,1.05,,2013-01-14 23:53:00,
2013-01-14 18:02:00,34.0,34.0,30.23,NNE,32,8.0,12.0,99,0.16,,,1.05,,2013-01-15 00:02:00,
2013-01-14 18:12:00,34.0,34.0,30.23,NNE,32,8.0,12.0,99,0.16,,,1.05,,2013-01-15 00:12:00,
2013-01-14 18:22:00,34.0,34.0,30.24,NNE,20,8.0,13.0,99,0.08,,,1.05,,2013-01-15 00:22:00,
2013-01-14 18:32:00,34.0,34.0,30.24,ENE,69,8.0,11.0,99,0.08,,,1.05,,2013-01-15 00:32:00,
2013-01-14 18:43:00,34.0,34.0,30.24,ENE,69,8.0,11.0,99,0.08,,,1.05,,2013-01-15 00:43:00,
2013-01-14 18:53:00,34.0,34.0,30.23,ENE,63,5.0,13.0,99,0.08,,,1.05,,2013-01-15 00:53:00,
2013-01-14 19:02:00,34.0,34.0,30.23,East,98,0.0,10.0,99,0.08,,,1.05,,2013-01-15 01:02:00,
2013-01-14 19:12:00,34.0,34.0,30.21,ENE,72,6.0,8.0,99,0.05,,,1.05,,2013-01-15 01:12:00,
2013-01-14 19:22:00,34.0,34.0,30.21,ENE,72,6.0,8.0,99,0.05,,,1.05,,2013-01-15 01:22:00,
2013-01-14 19:32:00,35.0,35.0,30.21,ENE,60,4.0,4.0,99,0.05,,,1.05,,2013-01-15 01:32:00,
2013-01-14 19:43:00,35.0,35.0,30.21,ENE,60,4.0,4.0,99,0.05,,,1.05,,2013-01-15 01:43:00,
2013-01-14 19:52:00,35.0,35.0,30.20,NE,53,5.0,8.0,99,0.05,,,1.05,,2013-01-15 01:52:00,
2013-01-14 20:02:00,35.0,35.0,30.19,NNE,28,5.0,7.0,100,0.05,,,1.05,,2013-01-15 02:02:00,
2013-01-14 20:12:00,35.0,35.0,30.19,NNE,28,5.0,7.0,100,0.05,,,1.05,,2013-01-15 02:12:00,
2013-01-14 20:22:00,35.0,35.0,30.19,NNE,30,4.0,7.0,100,0.03,,,1.05,,2013-01-15 02:22:00,
2013-01-14 20:32:00,36.0,36.0,30.19,NNE,24,3.0,7.0,100,0.03,,,1.05,,2013-01-15 02:32:00,
2013-01-14 20:42:00,36.0,36.0,30.19,NNE,24,3.0,7.0,100,0.03,,,1.05,,2013-01-15 02:42:00,
2013-01-14 20:53:00,36.0,36.0,30.19,NE,56,4.0,5.0,99,0.03,,,1.05,,2013-01-15 02:53:00,
2013-01-14 21:02:00,36.0,36.0,30.17,NNE,27,6.0,8.0,100,0.03,,,1.05,,2013-01-15 03:02:00,
2013-01-14 21:12:00,36.0,36.0,30.17,NNE,27,6.0,8.0,100,0.03,,,1.05,,2013-01-15 03:12:00,
2013-01-14 21:22:00,36.0,36.0,30.16,NNE,25,5.0,7.0,100,0.00,,,1.05,,2013-01-15 03:22:00,
2013-01-14 21:33:00,36.0,36.0,30.17,NNE,15,4.0,6.0,100,0.00,,,1.05,,2013-01-15 03:33:00,
2013-01-14 21:42:00,36.0,36.0,30.17,NNE,15,4.0,6.0,100,0.00,,,1.05,,2013-01-15 03:42:00,
2013-01-14 21:53:00,36.0,36.0,30.15,NNE,30,5.0,6.0,100,0.00,,,1.05,,2013-01-15 03:53:00,
2013-01-14 22:02:00,36.0,36.0,30.13,ENE,73,3.0,10.0,100,0.00,,,1.05,,2013-01-15 04:02:00,
2013-01-14 22:12:00,36.0,36.0,30.13,ENE,73,3.0,10.0,100,0.00,,,1.05,,2013-01-15 04:12:00,
2013-01-14 22:22:00,36.0,36.0,30.14,North,8,5.0,5.0,100,0.00,,,1.05,,2013-01-15 04:22:00,
2013-01-14 22:32:00,36.0,36.0,30.14,NNE,28,5.0,8.0,100,0.00,,,1.05,,2013-01-15 04:32:00,
2013-01-14 22:42:00,36.0,36.0,30.14,NNE,28,5.0,8.0,100,0.00,,,1.05,,2013-01-15 04:42:00,
2013-01-14 22:52:00,36.0,36.0,30.13,NNE,20,5.0,7.0,99,0.00,,,1.05,,2013-01-15 04:52:00,
2013-01-14 23:03:00,36.0,36.0,30.12,NE,39,6.0,9.0,99,0.00,,,1.05,,2013-01-15 05:03:00,
2013-01-14 23:12:00,36.0,36.0,30.12,NNE,31,7.0,10.0,99,0.01,,,1.05,,2013-01-15 05:12:00,
2013-01-14 23:22:00,36.0,36.0,30.12,NNE,31,7.0,10.0,99,0.01,,,1.05,,2013-01-15 05:22:00,
2013-01-14 23:33:00,36.0,36.0,30.13,NE,42,4.0,8.0,100,0.01,,,1.05,,2013-01-15 05:33:00,
2013-01-14 23:42:00,36.0,36.0,30.13,NE,42,4.0,8.0,100,0.01,,,1.05,,2013-01-15 05:42:00,
2013-01-14 23:52:00,36.0,36.0,30.12,NE,44,6.0,8.0,100,0.01,,,1.05,,2013-01-15 05:52:00,